| time (UTC) | temp F | wind direction | speed MPH | gust MPH | rain 1hr in | rain 24hr in | rain mn in | humidity % | barometer mb |
| 20260505223637 | 90 | 0.0 | 1.0 | 0.00 | 0.00 | 0.00 | 52 | 1006.0 | |
| 20260505222613 | 91 | 0.0 | 1.0 | 0.00 | 0.00 | 0.00 | 50 | 1005.9 | |
| 20260505221638 | 89 | 90 | 1.0 | 2.0 | 0.00 | 0.00 | 0.00 | 52 | 1005.9 |
| 20260505220613 | 91 | 225 | 5.0 | 5.0 | 0.00 | 0.00 | 0.00 | 43 | 1006.2 |
| 20260505215637 | 92 | 158 | 2.0 | 3.0 | 0.00 | 0.00 | 0.00 | 47 | 1006.2 |
| 20260505214613 | 90 | 45 | 4.0 | 6.0 | 0.00 | 0.00 | 0.00 | 51 | 1006.2 |
| 20260505213637 | 89 | 135 | 2.0 | 3.0 | 0.00 | 0.00 | 0.00 | 51 | 1006.3 |
| 20260505212613 | 91 | 90 | 4.0 | 6.0 | 0.00 | 0.00 | 0.00 | 46 | 1006.1 |
| 20260505211637 | 90 | 135 | 4.0 | 7.0 | 0.00 | 0.00 | 0.00 | 52 | 1006.6 |
| 20260505210613 | 90 | 248 | 5.0 | 8.0 | 0.00 | 0.00 | 0.00 | 51 | 1006.5 |
| 20260505205637 | 90 | 180 | 3.0 | 5.0 | 0.00 | 0.00 | 0.00 | 52 | 1006.7 |
| 20260505204613 | 89 | 158 | 5.0 | 9.0 | 0.00 | 0.00 | 0.00 | 55 | 1006.5 |
| 20260505203637 | 90 | 180 | 9.0 | 14.0 | 0.00 | 0.00 | 0.00 | 49 | 1006.9 |
| 20260505202613 | 90 | 270 | 3.0 | 4.0 | 0.00 | 0.00 | 0.00 | 54 | 1006.9 |
| 20260505201637 | 89 | 225 | 3.0 | 5.0 | 0.00 | 0.00 | 0.00 | 52 | 1006.9 |
| 20260505200613 | 88 | 225 | 5.0 | 7.0 | 0.00 | 0.00 | 0.00 | 55 | 1006.8 |
| 20260505195637 | 89 | 270 | 3.0 | 5.0 | 0.00 | 0.00 | 0.00 | 52 | 1007.2 |
| 20260505194613 | 89 | 90 | 3.0 | 4.0 | 0.00 | 0.00 | 0.00 | 55 | 1007.2 |
| 20260505193657 | 89 | 180 | 2.0 | 3.0 | 0.00 | 0.00 | 0.00 | 54 | 1007.0 |
| 20260505192613 | 87 | 180 | 1.0 | 3.0 | 0.00 | 0.00 | 0.00 | 56 | 1007.4 |
| 20260505191637 | 87 | 135 | 4.0 | 5.0 | 0.00 | 0.00 | 0.00 | 59 | 1007.2 |
| 20260505190613 | 86 | 270 | 3.0 | 3.0 | 0.00 | 0.00 | 0.00 | 60 | 1007.2 |
| 20260505185637 | 85 | 180 | 3.0 | 5.0 | 0.00 | 0.00 | 0.00 | 60 | 1007.3 |
| 20260505184613 | 84 | 90 | 5.0 | 9.0 | 0.00 | 0.00 | 0.00 | 60 | 1007.3 |
| 20260505183658 | 84 | 135 | 3.0 | 4.0 | 0.00 | 0.00 | 0.00 | 60 | 1007.3 |
| 20260505182614 | 84 | 135 | 2.0 | 4.0 | 0.00 | 0.00 | 0.00 | 57 | 1007.4 |
| 20260505181637 | 85 | 180 | 3.0 | 3.0 | 0.00 | 0.00 | 0.00 | 58 | 1007.4 |
| 20260505180634 | 85 | 180 | 3.0 | 5.0 | 0.00 | 0.00 | 0.00 | 60 | 1007.3 |
| 20260505175637 | 84 | 203 | 5.0 | 7.0 | 0.00 | 0.00 | 0.00 | 61 | 1007.2 |
| 20260505174613 | 83 | 158 | 3.0 | 5.0 | 0.00 | 0.00 | 0.00 | 61 | 1007.5 |
| 20260505173637 | 83 | 135 | 2.0 | 3.0 | 0.00 | 0.00 | 0.00 | 61 | 1007.3 |
| 20260505172613 | 82 | 158 | 5.0 | 8.0 | 0.00 | 0.00 | 0.00 | 60 | 1007.5 |
| 20260505171658 | 82 | 135 | 3.0 | 3.0 | 0.00 | 0.00 | 0.00 | 61 | 1007.5 |
| 20260505170613 | 82 | 90 | 3.0 | 5.0 | 0.00 | 0.00 | 0.00 | 61 | 1007.7 |
| 20260505165637 | 82 | 225 | 3.0 | 5.0 | 0.00 | 0.00 | 0.00 | 62 | 1007.6 |
| 20260505164613 | 81 | 135 | 2.0 | 3.0 | 0.00 | 0.00 | 0.00 | 66 | 1007.8 |
| 20260505163637 | 80 | 135 | 5.0 | 8.0 | 0.00 | 0.00 | 0.00 | 65 | 1007.6 |
| 20260505162613 | 81 | 180 | 4.0 | 6.0 | 0.00 | 0.00 | 0.00 | 64 | 1007.7 |
| 20260505161637 | 81 | 90 | 3.0 | 4.0 | 0.00 | 0.00 | 0.00 | 66 | 1007.4 |
| 20260505160613 | 80 | 90 | 3.0 | 5.0 | 0.00 | 0.00 | 0.00 | 68 | 1007.0 |
| 20260505152613 | 78 | 293 | 3.0 | 6.0 | 0.00 | 0.00 | 0.00 | 71 | 1007.3 |
| 20260505151637 | 78 | 180 | 4.0 | 6.0 | 0.00 | 0.00 | 0.00 | 70 | 1007.3 |
| 20260505150614 | 79 | 90 | 3.0 | 6.0 | 0.00 | 0.00 | 0.00 | 70 | 1007.3 |
| 20260505140613 | 73 | 180 | 5.0 | 7.0 | 0.00 | 0.00 | 0.00 | 75 | 1007.5 |
| 20260505124614 | 71 | 90 | 3.0 | 4.0 | 0.00 | 0.00 | 0.00 | 82 | 1007.2 |
| 20260505123637 | 71 | 315 | 3.0 | 7.0 | 0.00 | 0.00 | 0.00 | 82 | 1006.7 |
| 20260505122614 | 71 | 180 | 4.0 | 7.0 | 0.00 | 0.00 | 0.00 | 82 | 1006.8 |
| 20260505121637 | 71 | 135 | 1.0 | 3.0 | 0.00 | 0.00 | 0.00 | 82 | 1006.6 |
| 20260505120613 | 70 | 225 | 6.0 | 9.0 | 0.00 | 0.00 | 0.00 | 82 | 1006.5 |
| 20260505115637 | 70 | 135 | 2.0 | 4.0 | 0.00 | 0.00 | 0.00 | 83 | 1006.7 |
| 20260505114613 | 70 | 45 | 3.0 | 5.0 | 0.00 | 0.00 | 0.00 | 83 | 1006.6 |
| 20260505113637 | 70 | 23 | 3.0 | 3.0 | 0.00 | 0.00 | 0.00 | 83 | 1006.5 |
| 20260505112613 | 70 | 135 | 2.0 | 3.0 | 0.00 | 0.00 | 0.00 | 83 | 1006.2 |
| 20260505111637 | 70 | 180 | 3.0 | 3.0 | 0.00 | 0.00 | 0.00 | 82 | 1006.3 |
| 20260505110614 | 70 | 135 | 2.0 | 4.0 | 0.00 | 0.00 | 0.00 | 82 | 1006.3 |
| 20260505101637 | 71 | 90 | 5.0 | 7.0 | 0.00 | 0.00 | 0.00 | 81 | 1006.3 |
| 20260505100613 | 71 | 23 | 3.0 | 5.0 | 0.00 | 0.00 | 0.00 | 81 | 1006.3 |
| 20260505095657 | 70 | 135 | 3.0 | 6.0 | 0.00 | 0.00 | 0.00 | 82 | 1006.4 |
| 20260505094613 | 70 | 135 | 3.0 | 5.0 | 0.00 | 0.00 | 0.00 | 82 | 1006.5 |
| 20260505093637 | 70 | 180 | 7.0 | 11.0 | 0.00 | 0.00 | 0.00 | 82 | 1006.6 |
| 20260505092613 | 70 | 135 | 4.0 | 7.0 | 0.00 | 0.00 | 0.00 | 82 | 1006.7 |
| 20260505091657 | 70 | 158 | 6.0 | 11.0 | 0.00 | 0.00 | 0.00 | 82 | 1006.8 |
| 20260505090613 | 70 | 203 | 2.0 | 3.0 | 0.00 | 0.00 | 0.00 | 82 | 1006.6 |
| 20260505085657 | 70 | 135 | 4.0 | 6.0 | 0.00 | 0.00 | 0.00 | 82 | 1006.5 |
| 20260505084614 | 70 | 135 | 3.0 | 5.0 | 0.00 | 0.00 | 0.00 | 82 | 1006.6 |
| 20260505083637 | 70 | 180 | 3.0 | 5.0 | 0.00 | 0.00 | 0.00 | 81 | 1006.5 |
| 20260505082613 | 70 | 158 | 5.0 | 7.0 | 0.00 | 0.00 | 0.00 | 81 | 1006.6 |
| 20260505081637 | 70 | 135 | 3.0 | 4.0 | 0.00 | 0.00 | 0.00 | 81 | 1006.7 |
| 20260505075637 | 70 | 45 | 3.0 | 4.0 | 0.00 | 0.00 | 0.00 | 80 | 1006.8 |
| 20260505074613 | 71 | 180 | 3.0 | 7.0 | 0.00 | 0.00 | 0.00 | 79 | 1007.0 |
| 20260505073637 | 71 | 225 | 6.0 | 12.0 | 0.00 | 0.00 | 0.00 | 79 | 1007.3 |
| 20260505072613 | 71 | 90 | 5.0 | 13.0 | 0.00 | 0.00 | 0.00 | 78 | 1007.4 |
| 20260505071637 | 71 | 225 | 4.0 | 6.0 | 0.00 | 0.00 | 0.00 | 78 | 1007.7 |
| 20260505070633 | 71 | 225 | 5.0 | 7.0 | 0.00 | 0.00 | 0.00 | 77 | 1007.6 |
| 20260505065657 | 71 | 180 | 3.0 | 5.0 | 0.00 | 0.00 | 0.00 | 76 | 1007.8 |
| 20260505064633 | 71 | 45 | 2.0 | 3.0 | 0.00 | 0.00 | 0.00 | 76 | 1007.9 |
| 20260505063637 | 71 | 225 | 3.0 | 4.0 | 0.00 | 0.00 | 0.00 | 75 | 1007.9 |
| 20260505062613 | 71 | 180 | 2.0 | 4.0 | 0.00 | 0.00 | 0.00 | 75 | 1007.9 |
| 20260505061637 | 71 | 180 | 3.0 | 4.0 | 0.00 | 0.00 | 0.00 | 75 | 1007.9 |
| 20260505060613 | 71 | 135 | 5.0 | 8.0 | 0.00 | 0.00 | 0.00 | 74 | 1008.0 |
| 20260505055637 | 71 | 135 | 7.0 | 9.0 | 0.00 | 0.00 | 0.00 | 74 | 1008.0 |
| 20260505054633 | 71 | 180 | 2.0 | 3.0 | 0.00 | 0.00 | 0.00 | 74 | 1008.4 |
| 20260505053200 | 71 | 158 | 6.0 | 10.0 | 0.00 | 0.00 | 0.00 | 73 | 1008.3 |
| 20260505052128 | 71 | 180 | 2.0 | 3.0 | 0.00 | 0.00 | 0.00 | 73 | 1008.6 |
| 20260505050616 | 71 | 90 | 2.0 | 3.0 | 0.00 | 0.00 | 0.00 | 73 | 1008.5 |
| 20260505041641 | 72 | 338 | 2.0 | 3.0 | 0.00 | 0.00 | 0.00 | 71 | 1008.5 |
| 20260505040616 | 72 | 180 | 2.0 | 3.0 | 0.00 | 0.00 | 0.00 | 71 | 1008.5 |
| 20260505035640 | 72 | 90 | 2.0 | 4.0 | 0.00 | 0.00 | 0.00 | 71 | 1008.7 |
| 20260505034616 | 72 | 225 | 4.0 | 8.0 | 0.00 | 0.00 | 0.00 | 71 | 1008.5 |
| 20260505033641 | 72 | 135 | 4.0 | 6.0 | 0.00 | 0.00 | 0.00 | 71 | 1008.5 |
| 20260505032616 | 72 | 135 | 1.0 | 3.0 | 0.00 | 0.00 | 0.00 | 71 | 1008.8 |
| 20260505031641 | 72 | 135 | 2.0 | 3.0 | 0.00 | 0.00 | 0.00 | 71 | 1008.7 |
| 20260505030616 | 72 | 135 | 1.0 | 2.0 | 0.00 | 0.00 | 0.00 | 70 | 1008.5 |
| 20260505025640 | 72 | 90 | 2.0 | 3.0 | 0.00 | 0.00 | 0.00 | 70 | 1008.7 |
| 20260505024616 | 73 | 270 | 2.0 | 3.0 | 0.00 | 0.00 | 0.00 | 65 | 1008.8 |
| 20260505023640 | 73 | 135 | 2.0 | 3.0 | 0.00 | 0.00 | 0.00 | 65 | 1008.7 |
| 20260505022617 | 73 | 135 | 4.0 | 7.0 | 0.00 | 0.00 | 0.00 | 65 | 1008.7 |
| 20260505021701 | 73 | 135 | 1.0 | 2.0 | 0.00 | 0.00 | 0.00 | 64 | 1008.5 |
| 20260505020617 | 74 | 158 | 3.0 | 3.0 | 0.00 | 0.00 | 0.00 | 64 | 1008.5 |
| 20260505015641 | 74 | 270 | 3.0 | 3.0 | 0.00 | 0.00 | 0.00 | 63 | 1008.5 |
| 20260505014617 | 74 | 90 | 1.0 | 3.0 | 0.00 | 0.00 | 0.00 | 62 | 1008.5 |
| 20260505013701 | 74 | 45 | 4.0 | 6.0 | 0.00 | 0.00 | 0.00 | 62 | 1008.4 |
| 20260505012616 | 74 | 225 | 3.0 | 3.0 | 0.00 | 0.00 | 0.00 | 62 | 1008.6 |
| 20260505011640 | 75 | 135 | 2.0 | 3.0 | 0.00 | 0.00 | 0.00 | 61 | 1008.6 |
| 20260505010616 | 75 | 135 | 3.0 | 3.0 | 0.00 | 0.00 | 0.00 | 61 | 1008.2 |
| 20260505005640 | 76 | 135 | 1.0 | 1.0 | 0.00 | 0.00 | 0.00 | 60 | 1008.6 |
| 20260505004616 | 76 | 135 | 4.0 | 6.0 | 0.00 | 0.00 | 0.00 | 60 | 1008.5 |
| 20260505003641 | 76 | 90 | 2.0 | 3.0 | 0.00 | 0.00 | 0.00 | 60 | 1008.7 |
| 20260505002617 | 77 | 180 | 3.0 | 6.0 | 0.00 | 0.00 | 0.00 | 58 | 1008.6 |
| 20260505001643 | 78 | 180 | 4.0 | 7.0 | 0.00 | 0.00 | 0.00 | 56 | 1008.8 |
| 20260505000637 | 79 | 135 | 5.0 | 9.0 | 0.00 | 0.00 | 0.00 | 56 | 1008.6 |
| 20260504235641 | 78 | 180 | 5.0 | 10.0 | 0.00 | 0.00 | 0.00 | 56 | 1008.7 |
| 20260504234616 | 78 | 180 | 4.0 | 7.0 | 0.00 | 0.00 | 0.00 | 56 | 1008.8 |
| 20260504233640 | 78 | 90 | 5.0 | 10.0 | 0.00 | 0.00 | 0.00 | 55 | 1008.6 |
| 20260504232616 | 79 | 225 | 3.0 | 4.0 | 0.00 | 0.00 | 0.00 | 54 | 1008.8 |
| 20260504231700 | 80 | 135 | 5.0 | 7.0 | 0.00 | 0.00 | 0.00 | 52 | 1009.2 |
| 20260504230637 | 82 | 135 | 6.0 | 9.0 | 0.00 | 0.00 | 0.00 | 50 | 1009.0 |
| 20260504225641 | 82 | 180 | 5.0 | 12.0 | 0.00 | 0.00 | 0.00 | 48 | 1009.3 |
| 20260504224617 | 82 | 180 | 3.0 | 4.0 | 0.00 | 0.00 | 0.00 | 48 | 1009.2 |